Home > Weather > Marigot > Past weeks

Weather for the Past 2 Weeks in Marigot, Saint Martin

Now
79 °F

Scattered clouds.


Feels Like: 82 °F
Forecast: 78 / 83 °F
Wind: 8 mph from Southeast

Location: Juliana Airport - Saint Maarten

Current Time: Feb 7, 2016 at 7:43:41 AM

Latest Report: Feb 7, 2016 at 7:00 AM


Visibility: N/A

Pressure: 30.04 "Hg

Humidity: 79%

Dew point: 72 °F

Location of MarigotLocation

Historic Weather in Marigot — Graph

°F

Marigot Temperature Yesterday

Maximum temperature yesterday: 82 °F (at 10:00 AM)
Minimum temperature yesterday: 77 °F (at 5:00 AM)
Average temperature yesterday: 80 °F

High & Low Weather Summary for the Past Weeks

 TemperatureHumidityPressure
High84 °F (Jan 25, 12:00 PM)100% (Jan 30, 1:00 AM)30.18 "Hg (Jan 30, 1:00 AM)
Low73 °F (Jan 30, 12:00 AM)54% (Feb 4, 3:00 PM)29.86 "Hg (Feb 4, 3:00 PM)
Average79 °F72%30.04 "Hg
* Reported Jan 23 6:00 AM — Feb 7 6:00 AM, Marigot, Weather by CustomWeather, © 2016

Note: Actual official high and low records may vary slightly from our data, if they occured in-between our weather recording intervals... More about our weather records

Advertising

Marigot Weather History for the Previous 24 Hours

 ConditionsComfort  
Time TempWeatherWind HumidityBarometerVisibility
6:00 AM
Sun, Feb 7
79 °FPassing clouds.9 mph74%30.04 "HgN/A
5:00 AM79 °FPassing clouds.10 mph79%30.01 "HgN/A
4:00 AM79 °FPassing clouds.12 mph74%30.01 "HgN/A
3:00 AM79 °FPassing clouds.13 mph79%30.04 "HgN/A
2:00 AM79 °FPassing clouds.13 mph79%30.07 "HgN/A
1:00 AM79 °FSprinkles. Passing clouds.14 mph79%30.07 "HgN/A
12:00 AM79 °FPassing clouds.15 mph79%30.09 "HgN/A
11:00 PM
Sat, Feb 6
79 °FPassing clouds.13 mph79%30.09 "HgN/A
10:00 PM79 °FPassing clouds.15 mph79%30.09 "HgN/A
9:00 PM81 °FPassing clouds.15 mph70%30.09 "HgN/A
8:00 PM81 °FPassing clouds.15 mph70%30.07 "HgN/A
7:00 PM81 °FPassing clouds.12 mph70%30.04 "HgN/A
6:00 PM81 °FPassing clouds.10 mph74%30.04 "HgN/A
5:00 PM81 °FPassing clouds.14 mph74%30.04 "HgN/A
4:00 PM82 °FPassing clouds.15 mph70%30.01 "HgN/A
3:00 PM82 °FScattered clouds.15 mph74%30.04 "HgN/A
2:00 PM82 °FPassing clouds.12 mph74%30.04 "HgN/A
1:00 PM82 °FPassing clouds.14 mph70%30.07 "HgN/A
12:00 PM82 °FPassing clouds.10 mph74%30.09 "HgN/A
11:00 AM82 °FPassing clouds.12 mph70%30.12 "HgN/A
10:00 AM82 °FPassing clouds.10 mph70%30.12 "HgN/A
9:00 AM81 °FScattered clouds.5 mph74%30.09 "HgN/A
8:00 AM81 °FPassing clouds.3 mph74%30.09 "HgN/A
7:00 AM77 °FPassing clouds.6 mph83%30.07 "HgN/A
Weather by CustomWeather, © 2016

See weather overviewHow to use our weather pages